Weather History for Andrews, TX

Change the Weather History Date:

Friday, September 13, 2013

  Actual Average (KMAF) Record (KMAF)
Temperature  
Mean Temperature 75 °F 75 °F  
Max Temperature 88 °F 88 °F 102 °F (1930)
Min Temperature 62 °F 63 °F 49 °F (1959)
Degree Days  
Heating Degree Days 0 0  
Month to date heating degree days 0  
Since 1 July heating degree days 0  
Cooling Degree Days 10 10  
Month to date cooling degree days 158  
Year to date cooling degree days 2042  
Growing Degree Days 25 (Base 50)    
Moisture  
Dew Point 52 °F    
Average Humidity 46    
Maximum Humidity 68    
Minimum Humidity 24    
Precipitation  
Precipitation 0.00 in 0.07 in 0.85 in (1933)
Month to date precipitation 0.88  
Year to date precipitation 10.60  
Sea Level Pressure  
Sea Level Pressure 30.05 in    
Wind  
Wind Speed 6 mph (SSE)    
Max Wind Speed 18 mph    
Max Gust Speed 26 mph    
Visibility 10 miles    
Events      
T = Trace of Precipitation, MM = Missing Value Source: NWS Daily Summary

Daily Weather History Graph

Daily Weather History Graph

Search for Another Location

Airport:

Trip Planner

Search our weather history database for the weather conditions in past years. The results will help you decide how hot, cold, wet, or windy it might be!

Date:

Astronomy

Sep. 13, 2013 Rise Set
Actual Time 7:32 AM CDT 7:58 PM CDT
Civil Twilight 7:08 AM CDT 8:22 PM CDT
Nautical Twilight 6:39 AM CDT 8:51 PM CDT
Astronomical Twilight 6:10 AM CDT 9:21 PM CDT
Moon 3:35 PM CDT (9/13) 1:19 AM CDT (9/13)
Length of Visible Light 13h 14m
Length of Day
12h 25m
First Quarter, 61% of the Moon is Illuminated
Sep 13
First Quarter
Sep 19
Full
Sep 26
Last Quarter
Oct 4
New
Oct 11
First Quarter

Hourly Weather History & Observations

Time (CDT) Temp. Heat Index Dew Point Humidity Pressure Visibility Wind Dir Wind Speed Gust Speed Precip Events Conditions
12:15 AM 72.0 °F - 51.4 °F 48% 30.10 in 10.0 mi ESE 6.9 mph - N/A   Clear
12:35 AM 71.2 °F - 51.4 °F 50% 30.10 in 10.0 mi ESE 6.9 mph - N/A   Clear
12:55 AM 70.7 °F - 51.8 °F 51% 30.10 in 10.0 mi SE 6.9 mph - N/A   Clear
1:15 AM 69.3 °F - 51.6 °F 53% 30.10 in 10.0 mi SSE 3.5 mph - N/A   Clear
1:35 AM 68.7 °F - 51.4 °F 54% 30.10 in 10.0 mi South 3.5 mph - N/A   Clear
1:55 AM 69.1 °F - 51.6 °F 54% 30.09 in 10.0 mi Calm Calm - N/A   Clear
2:15 AM 68.5 °F - 51.8 °F 55% 30.09 in 10.0 mi South 4.6 mph - N/A   Clear
2:35 AM 68.0 °F - 51.8 °F 56% 30.09 in 10.0 mi SSE 3.5 mph - N/A   Clear
2:55 AM 68.2 °F - 51.8 °F 56% 30.09 in 10.0 mi Calm Calm - N/A   Clear
3:15 AM 66.6 °F - 51.4 °F 58% 30.09 in 10.0 mi SE 3.5 mph - N/A   Clear
3:35 AM 66.2 °F - 51.6 °F 59% 30.08 in 10.0 mi SSE 5.8 mph - N/A   Clear
3:55 AM 65.8 °F - 51.8 °F 60% 30.08 in 10.0 mi SSE 3.5 mph - N/A   Clear
4:15 AM 65.1 °F - 51.3 °F 61% 30.08 in 10.0 mi SE 3.5 mph - N/A   Clear
4:35 AM 64.6 °F - 50.9 °F 61% 30.08 in 10.0 mi Calm Calm - N/A   Clear
4:55 AM 63.7 °F - 50.7 °F 63% 30.08 in 10.0 mi ESE 3.5 mph - N/A   Clear
5:15 AM 63.9 °F - 51.1 °F 63% 30.08 in 10.0 mi Calm Calm - N/A   Clear
5:35 AM 63.7 °F - 52.7 °F 67% 30.08 in 10.0 mi Calm Calm - N/A   Clear
5:55 AM 63.0 °F - 50.7 °F 64% 30.09 in 10.0 mi Calm Calm - N/A   Clear
6:15 AM 63.3 °F - 50.7 °F 63% 30.09 in 10.0 mi Calm Calm - N/A   Clear
6:35 AM 62.1 °F - 50.9 °F 67% 30.09 in 10.0 mi Calm Calm - N/A   Clear
6:55 AM 62.2 °F - 50.9 °F 66% 30.09 in 10.0 mi Calm Calm - N/A   Clear
7:15 AM 62.1 °F - 50.9 °F 67% 30.09 in 10.0 mi Calm Calm - N/A   Clear
7:35 AM 62.2 °F - 51.6 °F 68% 30.09 in 10.0 mi Calm Calm - N/A   Clear
7:55 AM 62.2 °F - 51.1 °F 67% 30.09 in 10.0 mi Calm Calm - N/A   Clear
8:15 AM 63.5 °F - 51.8 °F 66% 30.09 in 10.0 mi Calm Calm - N/A   Clear
8:35 AM 66.4 °F - 52.7 °F 61% 30.10 in 10.0 mi Calm Calm - N/A   Clear
8:55 AM 69.6 °F - 54.5 °F 59% 30.10 in 10.0 mi Calm Calm - N/A   Clear
9:15 AM 71.8 °F - 56.8 °F 59% 30.10 in 10.0 mi SSW 4.6 mph - N/A   Clear
9:35 AM 74.5 °F - 59.5 °F 60% 30.10 in 10.0 mi SSW 8.1 mph - N/A   Clear
9:55 AM 76.3 °F - 59.9 °F 57% 30.10 in 10.0 mi South 6.9 mph - N/A   Clear
10:15 AM 77.5 °F - 59.9 °F 54% 30.10 in 10.0 mi South 8.1 mph - N/A   Clear
10:35 AM 78.6 °F - 59.4 °F 51% 30.10 in 10.0 mi SSW 4.6 mph - N/A   Clear
10:55 AM 79.0 °F - 59.0 °F 50% 30.10 in 10.0 mi SSE 6.9 mph - N/A   Clear
11:15 AM 80.6 °F 80.9 °F 58.3 °F 46% 30.10 in 10.0 mi SSE 9.2 mph 18.4 mph N/A   Clear
11:35 AM 81.3 °F 81.3 °F 57.4 °F 44% 30.09 in 10.0 mi SSE 11.5 mph 20.7 mph N/A   Clear
11:55 AM 82.9 °F 82.6 °F 57.4 °F 42% 30.09 in 10.0 mi SSE 9.2 mph 21.9 mph N/A   Scattered Clouds
12:15 PM 83.3 °F 82.6 °F 56.5 °F 40% 30.09 in 10.0 mi SE 16.1 mph 20.7 mph N/A   Scattered Clouds
12:35 PM 84.4 °F 83.4 °F 56.1 °F 38% 30.08 in 10.0 mi SE 13.8 mph 20.7 mph N/A   Scattered Clouds
12:55 PM 84.9 °F 83.7 °F 55.6 °F 37% 30.08 in 10.0 mi SE 9.2 mph 21.9 mph N/A   Scattered Clouds
1:15 PM 83.7 °F 82.7 °F 55.2 °F 38% 30.07 in 10.0 mi ESE 12.7 mph 18.4 mph N/A   Mostly Cloudy
1:35 PM 83.3 °F 82.5 °F 55.6 °F 39% 30.06 in 10.0 mi SE 9.2 mph 18.4 mph N/A   Mostly Cloudy
1:55 PM 86.5 °F 84.9 °F 55.0 °F 34% 30.05 in 10.0 mi South 13.8 mph 21.9 mph N/A   Mostly Cloudy
2:15 PM 87.4 °F 85.5 °F 53.8 °F 32% 30.04 in 10.0 mi SE 17.3 mph 21.9 mph N/A   Mostly Cloudy
2:35 PM 87.6 °F 85.7 °F 54.1 °F 32% 30.03 in 10.0 mi SSE 13.8 mph 25.3 mph N/A   Mostly Cloudy
2:55 PM 87.4 °F 85.3 °F 53.1 °F 31% 30.02 in 10.0 mi SE 11.5 mph 20.7 mph N/A   Scattered Clouds
3:15 PM 87.8 °F - 52.5 °F 30% 30.01 in 10.0 mi SSE 15.0 mph 24.2 mph N/A   Mostly Cloudy
3:35 PM 85.6 °F - 52.3 °F 32% 30.00 in 10.0 mi SE 11.5 mph 18.4 mph N/A   Overcast
3:55 PM 86.2 °F - 51.8 °F 31% 29.98 in 10.0 mi SE 17.3 mph 26.5 mph N/A   Mostly Cloudy
4:15 PM 87.8 °F - 50.4 °F 27% 29.98 in 10.0 mi East 12.7 mph 25.3 mph N/A   Clear
4:35 PM 88.2 °F - 50.7 °F 28% 29.97 in 10.0 mi ESE 18.4 mph 23.0 mph N/A   Mostly Cloudy
4:55 PM 86.0 °F - 48.9 °F 28% 29.97 in 10.0 mi SE 15.0 mph 20.7 mph N/A   Mostly Cloudy
5:15 PM 88.0 °F - 48.7 °F 26% 29.96 in 10.0 mi SSE 12.7 mph 19.6 mph N/A   Mostly Cloudy
5:35 PM 88.0 °F - 48.4 °F 25% 29.95 in 10.0 mi SSE 10.4 mph 21.9 mph N/A   Scattered Clouds
5:55 PM 88.2 °F - 48.2 °F 25% 29.95 in 10.0 mi SE 9.2 mph 24.2 mph N/A   Scattered Clouds
6:15 PM 88.2 °F - 46.9 °F 24% 29.95 in 10.0 mi ESE 13.8 mph - N/A   Scattered Clouds
6:35 PM 87.4 °F - 46.6 °F 24% 29.95 in 10.0 mi ESE 12.7 mph 19.6 mph N/A   Clear
6:55 PM 86.5 °F - 46.0 °F 24% 29.95 in 10.0 mi SE 9.2 mph 18.4 mph N/A   Scattered Clouds
7:15 PM 85.6 °F - 44.8 °F 24% 29.95 in 10.0 mi SE 9.2 mph - N/A   Clear
7:35 PM 84.6 °F - 47.1 °F 27% 29.95 in 10.0 mi SE 9.2 mph - N/A   Clear
7:55 PM 83.5 °F - 48.9 °F 30% 29.95 in 10.0 mi SE 10.4 mph - N/A   Clear
8:15 PM 82.4 °F - 51.3 °F 34% 29.96 in 10.0 mi SSE 11.5 mph - N/A   Clear
8:35 PM 81.3 °F - 51.8 °F 36% 29.97 in 10.0 mi SSE 9.2 mph - N/A   Clear
8:55 PM 80.1 °F - 52.2 °F 38% 29.98 in 10.0 mi SSE 8.1 mph - N/A   Clear
9:15 PM 79.0 °F - 52.3 °F 39% 29.99 in 10.0 mi SSE 5.8 mph - N/A   Clear
9:35 PM 77.0 °F - 52.0 °F 42% 29.99 in 10.0 mi SSE 3.5 mph - N/A   Clear
9:55 PM 75.9 °F - 51.8 °F 43% 30.00 in 10.0 mi SSE 4.6 mph - N/A   Clear
10:15 PM 74.8 °F - 51.8 °F 44% 30.01 in 10.0 mi Calm Calm - N/A   Scattered Clouds
10:35 PM 74.3 °F - 51.8 °F 45% 30.01 in 10.0 mi SSE 3.5 mph - N/A   Scattered Clouds
10:55 PM 73.6 °F - 51.8 °F 46% 30.01 in 10.0 mi SSE 4.6 mph - N/A   Clear
11:15 PM 73.4 °F - 52.3 °F 48% 30.01 in 10.0 mi SSE 3.5 mph - N/A   Clear
11:35 PM 72.5 °F - 52.3 °F 49% 30.02 in 10.0 mi SSE 3.5 mph - N/A   Clear
11:55 PM 71.8 °F - 52.0 °F 50% 30.02 in 10.0 mi SSE 4.6 mph - N/A   Clear